sat.trackr.live / text

‹ back to catalog

STARLINK-35662

NORAD 66384 · 2025-257E

PAYLOAD ACTIVE UNKNOWN

§ Identity

Operator
Country
US
Launch date
2025-11-09
Launch site
AFETR
Launch vehicle
Mass (kg)
RCS (m²)

Purposes: comms

External: N2YO · Heavens-Above · Gunter

§ Orbital elements

Epoch: 2026-05-25T05:16:01.604064Z

Period
94.10 min
Inclination
53.1582°
Eccentricity
0.0001285
Mean motion
15.30207004 rev/d
Perigee alt
474.3 km
Apogee alt
476.1 km
Semi-major
6,853.3 km
B*
6.4696e-4
RAAN
221.3316°
Arg perigee
76.0896°
Mean anomaly
284.0247°
Rev number
3,145

§ Raw data

STARLINK-356621 66384U 25257E   26145.21946301  .00018855  00000+0  64696-3 0  99922 66384  53.1582 221.3316 0001285  76.0896 284.0247 15.30207004 31455

JSON: /api/v1/satellites/66384 · /tle

For live sub-satellite position, see the globe view (requires WebGL).

§ Visibility from observer

Set your observer location to see the next 7 days of passes ≥ 10°. The values pass through the URL so the page stays shareable.

No JS? Fill the form by hand. The geolocation button needs JavaScript.